When you browse on this site, cookies collect data to enhance your experience and personalize the content and advertising you see.
Visit our Privacy Policy to learn more. By continuing to use the site, you agree to this use of cookies and data.
  • In United Kingdom
  • List of Countries
  • For 7 days
  • Water Temperature
  • Satellite Maps
  • Weather Map
  • Weather Widgets
  • user-avatar
    Login

    Hourly Weather Gilazi

    Today, 26 May, Sunday

    Time Temperature Precipitation Wind Pressure Humidity
    00:00 +27°C° 0 mm 5 mps 756 mmHg 40%
    01:00 +27°C° 0 mm 5 mps 756 mmHg 40%
    02:00 +26°C° 0 mm 4 mps 755 mmHg 40%
    03:00 +26°C° 0 mm 5 mps 756 mmHg 37%
    04:00 +26°C° 0 mm 5 mps 756 mmHg 40%
    05:00 +26°C° 0 mm 5 mps 756 mmHg 42%
    06:00 +26°C° 0 mm 5 mps 757 mmHg 44%
    07:00 +26°C° 0 mm 5 mps 757 mmHg 47%
    08:00 +27°C° 0 mm 5 mps 757 mmHg 51%
    09:00 +27°C° 0 mm 6 mps 757 mmHg 57%
    10:00 +27°C° 0 mm 6 mps 757 mmHg 56%
    11:00 +27°C° 0 mm 6 mps 757 mmHg 55%
    12:00 +28°C° 0 mm 6 mps 757 mmHg 54%
    13:00 +28°C° 0 mm 6 mps 757 mmHg 56%
    14:00 +27°C° 0 mm 6 mps 757 mmHg 57%
    15:00 +27°C° 0 mm 6 mps 757 mmHg 58%
    16:00 +26°C° 0.2 mm 5 mps 757 mmHg 63%
    17:00 +23°C° 0.2 mm 5 mps 757 mmHg 68%
    18:00 +22°C° 0.2 mm 4 mps 757 mmHg 73%
    19:00 +22°C° 0.5 mm 5 mps 758 mmHg 74%
    20:00 +22°C° 0.5 mm 5 mps 758 mmHg 76%
    21:00 +22°C° 0.5 mm 6 mps 758 mmHg 77%
    22:00 +22°C° 0.5 mm 6 mps 758 mmHg 75%
    23:00 +22°C° 0.5 mm 6 mps 759 mmHg 74%

    Tomorrow, 27 May, Monday

    Time Temperature Precipitation Wind Pressure Humidity
    00:00 +22°C° 0.5 mm 6 mps 759 mmHg 72%
    01:00 +21°C° 0 mm 6 mps 759 mmHg 73%
    02:00 +21°C° 0 mm 6 mps 759 mmHg 74%
    03:00 +21°C° 0 mm 7 mps 759 mmHg 74%
    04:00 +21°C° 0 mm 7 mps 760 mmHg 72%
    05:00 +21°C° 0 mm 8 mps 760 mmHg 69%
    06:00 +22°C° 0 mm 8 mps 760 mmHg 66%
    07:00 +23°C° 0 mm 8 mps 761 mmHg 65%
    08:00 +23°C° 0 mm 8 mps 761 mmHg 63%
    09:00 +24°C° 0 mm 8 mps 761 mmHg 61%
    10:00 +24°C° 0 mm 8 mps 762 mmHg 61%
    11:00 +24°C° 0 mm 7 mps 762 mmHg 61%
    12:00 +26°C° 0 mm 7 mps 762 mmHg 61%
    13:00 +24°C° 0 mm 6 mps 762 mmHg 61%
    14:00 +24°C° 0 mm 6 mps 762 mmHg 61%
    15:00 +25°C° 0 mm 5 mps 762 mmHg 61%
    16:00 +23°C° 0 mm 5 mps 762 mmHg 61%
    17:00 +23°C° 0 mm 4 mps 762 mmHg 62%
    18:00 +23°C° 0 mm 4 mps 762 mmHg 62%
    19:00 +22°C° 0 mm 3 mps 763 mmHg 62%
    20:00 +22°C° 0 mm 3 mps 763 mmHg 63%
    21:00 +21°C° 0 mm 3 mps 763 mmHg 64%
    22:00 +21°C° 0 mm 2 mps 763 mmHg 63%
    23:00 +21°C° 0 mm 2 mps 763 mmHg 63%

    Day after tomorrow, 28 May, Tuesday

    Time Temperature Precipitation Wind Pressure Humidity
    00:00 +21°C° 0 mm 2 mps 763 mmHg 63%
    01:00 +21°C° 0 mm 2 mps 763 mmHg 63%
    02:00 +21°C° 0 mm 2 mps 763 mmHg 63%
    03:00 +22°C° 0 mm 1 mps 763 mmHg 63%
    04:00 +21°C° 0 mm 2 mps 763 mmHg 60%
    05:00 +23°C° 0 mm 2 mps 764 mmHg 58%
    06:00 +24°C° 0 mm 2 mps 764 mmHg 55%
    07:00 +24°C° 0 mm 3 mps 764 mmHg 56%
    08:00 +25°C° 0 mm 3 mps 764 mmHg 57%
    09:00 +25°C° 0 mm 3 mps 764 mmHg 58%
    10:00 +25°C° 0.2 mm 3 mps 764 mmHg 58%
    11:00 +26°C° 0.2 mm 3 mps 764 mmHg 59%
    12:00 +26°C° 0.2 mm 3 mps 764 mmHg 60%
    13:00 +26°C° 0.2 mm 3 mps 764 mmHg 61%
    14:00 +25°C° 0.2 mm 3 mps 764 mmHg 62%
    15:00 +25°C° 0.2 mm 3 mps 764 mmHg 64%
    16:00 +25°C° 0.1 mm 3 mps 764 mmHg 66%
    17:00 +24°C° 0.1 mm 3 mps 763 mmHg 69%
    18:00 +24°C° 0.1 mm 3 mps 763 mmHg 72%
    19:00 +22°C° 0 mm 3 mps 764 mmHg 73%
    20:00 +22°C° 0 mm 3 mps 764 mmHg 75%
    21:00 +22°C° 0 mm 3 mps 764 mmHg 77%
    22:00 +21°C° 0.1 mm 3 mps 764 mmHg 76%
    23:00 +21°C° 0.1 mm 3 mps 764 mmHg 75%

    29 May, Wednesday

    Time Temperature Precipitation Wind Pressure Humidity
    00:00 +21°C° 0.1 mm 3 mps 764 mmHg 74%
    01:00 +21°C° 0.2 mm 3 mps 764 mmHg 74%
    02:00 +21°C° 0.2 mm 2 mps 763 mmHg 73%
    03:00 +21°C° 0.2 mm 2 mps 763 mmHg 73%
    04:00 +21°C° 0.2 mm 2 mps 763 mmHg 71%
    05:00 +23°C° 0.2 mm 2 mps 764 mmHg 69%
    06:00 +23°C° 0.2 mm 2 mps 764 mmHg 68%
    07:00 +24°C° 0 mm 2 mps 764 mmHg 64%
    08:00 +24°C° 0 mm 2 mps 764 mmHg 60%
    09:00 +25°C° 0 mm 1 mps 764 mmHg 56%
    10:00 +26°C° 0.1 mm 2 mps 763 mmHg 54%
    11:00 +26°C° 0.1 mm 2 mps 763 mmHg 53%
    12:00 +27°C° 0.1 mm 3 mps 763 mmHg 51%
    13:00 +26°C° 0.2 mm 2 mps 763 mmHg 52%
    14:00 +26°C° 0.2 mm 2 mps 763 mmHg 54%
    15:00 +26°C° 0.2 mm 2 mps 762 mmHg 55%
    16:00 +26°C° 0.1 mm 2 mps 762 mmHg 57%
    17:00 +25°C° 0.1 mm 1 mps 762 mmHg 59%
    18:00 +25°C° 0.1 mm 1 mps 762 mmHg 61%
    19:00 +24°C° 0 mm 1 mps 763 mmHg 62%
    20:00 +24°C° 0 mm 1 mps 763 mmHg 63%
    21:00 +24°C° 0 mm 1 mps 763 mmHg 63%
    22:00 +23°C° 0 mm 2 mps 763 mmHg 63%
    23:00 +23°C° 0 mm 2 mps 762 mmHg 63%

    30 May, Thursday

    Time Temperature Precipitation Wind Pressure Humidity
    00:00 +23°C° 0 mm 2 mps 762 mmHg 62%
    01:00 +23°C° 0 mm 2 mps 762 mmHg 62%
    02:00 +22°C° 0 mm 1 mps 762 mmHg 62%
    03:00 +22°C° 0 mm 1 mps 762 mmHg 63%
    04:00 +23°C° 0 mm 1 mps 762 mmHg 61%
    05:00 +23°C° 0 mm 1 mps 762 mmHg 59%
    06:00 +24°C° 0 mm 1 mps 762 mmHg 57%
    07:00 +25°C° 0 mm 1 mps 762 mmHg 54%
    08:00 +25°C° 0 mm 1 mps 762 mmHg 51%
    09:00 +26°C° 0 mm 1 mps 762 mmHg 48%
    10:00 +27°C° 0 mm 2 mps 762 mmHg 47%
    11:00 +27°C° 0 mm 2 mps 762 mmHg 45%
    12:00 +28°C° 0 mm 3 mps 762 mmHg 44%
    13:00 +28°C° 0.1 mm 3 mps 761 mmHg 45%
    14:00 +28°C° 0.1 mm 3 mps 761 mmHg 46%
    15:00 +27°C° 0.1 mm 2 mps 761 mmHg 48%
    16:00 +27°C° 0.1 mm 2 mps 761 mmHg 51%
    17:00 +26°C° 0.1 mm 1 mps 761 mmHg 54%
    18:00 +26°C° 0.1 mm 1 mps 761 mmHg 57%
    19:00 +25°C° 0 mm 1 mps 761 mmHg 58%
    20:00 +25°C° 0 mm 1 mps 761 mmHg 59%
    21:00 +22°C° 0 mm 0 mps 762 mmHg 60%
    22:00 +24°C° 0 mm 1 mps 761 mmHg 60%
    23:00 +24°C° 0 mm 1 mps 761 mmHg 59%

    31 May, Friday

    Time Temperature Precipitation Wind Pressure Humidity
    00:00 +24°C° 0 mm 1 mps 761 mmHg 59%
    01:00 +24°C° 0 mm 1 mps 761 mmHg 59%
    02:00 +24°C° 0 mm 1 mps 761 mmHg 59%
    03:00 +24°C° 0 mm 1 mps 760 mmHg 59%
    04:00 +24°C° 0 mm 1 mps 760 mmHg 58%
    05:00 +24°C° 0 mm 1 mps 761 mmHg 58%
    06:00 +25°C° 0 mm 1 mps 761 mmHg 57%
    07:00 +26°C° 0 mm 1 mps 761 mmHg 53%
    08:00 +27°C° 0 mm 1 mps 761 mmHg 48%
    09:00 +28°C° 0 mm 1 mps 761 mmHg 44%
    10:00 +28°C° 0 mm 2 mps 760 mmHg 42%
    11:00 +29°C° 0 mm 3 mps 760 mmHg 41%
    12:00 +30°C° 0 mm 3 mps 760 mmHg 40%
    13:00 +30°C° 0 mm 4 mps 759 mmHg 41%
    14:00 +29°C° 0 mm 4 mps 759 mmHg 41%
    15:00 +29°C° 0 mm 4 mps 759 mmHg 42%
    16:00 +29°C° 0.1 mm 4 mps 759 mmHg 45%
    17:00 +28°C° 0.1 mm 4 mps 759 mmHg 47%
    18:00 +28°C° 0.1 mm 3 mps 759 mmHg 50%
    19:00 +27°C° 0.2 mm 3 mps 759 mmHg 53%
    20:00 +26°C° 0.2 mm 2 mps 760 mmHg 55%
    21:00 +25°C° 0.2 mm 2 mps 760 mmHg 58%
    22:00 +25°C° 0.1 mm 2 mps 760 mmHg 59%
    23:00 +25°C° 0.1 mm 2 mps 759 mmHg 60%
    Show more